Location: New Plymouth
(39.0670°S, 174.0830°E)
Time: 16:26:50
(UTC+12:00)

NOAA 19 - Pass Details

Date: 20 August 2019
Orbit: 840 x 862 km, 99.2° (Epoch: 18 September)

Event Time Altitude Azimuth Distance (km) Brightness Sun altitude
Rises 03:28:57 0° 61° (ENE) 3,398 8.8 -42.1°
Reaches altitude 10° 03:32:06 10° 80° (E) 2,472 8.1 -41.5°
Maximum altitude 03:35:30 17° 119° (ESE) 2,027 7.7 -40.9°
Drops below altitude 10° 03:38:55 10° 158° (SSE) 2,493 8.0 -40.3°
Sets 03:42:06 0° 176° (S) 3,440 8.6 -39.7°
